Regional Weather Roundup
Issued by NWS Charleston, SC

Current Version | Previous Version | Graphics & Text | Print | Product List | Glossary On
Versions: 1 2 3 4 5 6 7 8 9 10 11 12 13 14 15 16 17 18 19 20 21 22 23 24 25 26 27 28 29 30 31 32 33 34 35 36 37 38 39 40 41 42 43 44 45 46 47 48 49 50
000
ASUS42 KCHS 270727
RWRCHS

REGIONAL WEATHER ROUNDUP
NATIONAL WEATHER SERVICE CHARLESTON SC
300 AM EDT MON APR 27 2015

NOTE: "FAIR" INDICATES FEW OR NO CLOUDS BELOW 12,000 FEET WITH NO
SIGNIFICANT WEATHER AND/OR OBSTRUCTIONS TO VISIBILITY.

NOT ALL STATIONS ARE QUALITY CONTROLLED BY THE NATIONAL
WEATHER SERVICE. USE DATA WITH CAUTION...ESPECIALLY
DEWPOINT OBSERVATIONS.

SCZ027-030-031-034>040-042>050-270800-
...SOUTHEAST SOUTH CAROLINA...

CITY           SKY/WX    TMP DP  RH WIND       PRES   REMARKS
N CHARLESTON   CLOUDY    55  52  89 NE9       29.74S
WATERFRONT PRK   N/A     57 N/A N/A N14         N/A
MOUNT PLEASANT CLOUDY    55  52  88 MISG      29.74S
PINOPOLIS      NOT AVBL
MONCKS CORNER  FAIR      54  50  87 NE3       29.75F
SUMMERVILLE    CLOUDY    54  54 100 N3        29.77S
BEAUFORT MCAS  CLOUDY    62  56  80 NE9       29.72F
BEAUFORT ARPT  CLOUDY    63  59  88 N14       29.72S
HILTON HEAD IS CLOUDY    64  61  88 N9        29.72F
WALTERBORO     CLOUDY    54  50  87 NE9       29.77R
ALLENDALE      FAIR      55  52  88 VRB5G14   29.76R

...SOUTHERN MIDLANDS AND PEE DEE...

CITY           SKY/WX    TMP DP  RH WIND       PRES   REMARKS
GEORGETOWN     NOT AVBL
KINGSTREE      NOT AVBL
ORANGEBURG     CLOUDY    54  48  80 NE6       29.77S
BARNWELL       PTSUNNY   55  52  88 N6        29.78R
AIKEN          PTSUNNY   52  45  76 NE6       29.80S
MANNING        RAIN      50  37  62 N3        29.76S
COLUMBIA       CLOUDY    55  47  74 N5        29.76F
SUMTER         CLOUDY    52  49  88 NE5       29.75F
FLORENCE       CLOUDY    53  49  86 N6        29.76F
MYRTLE BEACH   MOCLDY    54  48  82 N6        29.76F
N MYRTLE BEACH MOCLDY    52  49  89 N5        29.74F

$$

GAZ063-065-086>088-099>101-113>116-118-119-134>141-150-270800-
...SOUTHEAST GEORGIA...

CITY           SKY/WX    TMP DP  RH WIND       PRES   REMARKS
SAVANNAH ARPT  CLOUDY    64  57  77 NE10      29.72S
HUNTER AAF     CLOUDY    66  61  84 NE8       29.68F
FORT STEWART   MOCLDY    67  61  81 NE8       29.68S
STATESBORO       N/A     60  56  88 E8        29.74S
SYLVANIA       CLOUDY    58  56  92 E6        29.75S
CLAXTON        CLOUDY    61  59  94 NE8       29.72S

...CSRA...CENTRAL AND FAR SOUTHEAST GEORGIA...

CITY           SKY/WX    TMP DP  RH WIND       PRES   REMARKS
THOMSON        CLEAR     56  53  88 CALM      29.83S
AUGUSTA-BUSH   MOCLDY    56  49  77 NE6       29.77F
AUGUSTA-DANIEL PTCLDY    57  48  72 NE7       29.78S
SWAINSBORO     NOT AVBL
VIDALIA        CLOUDY    63  59  88 N12       29.73R
EASTMAN        FAIR      67  59  76 N3        29.76R
HAZLEHURST     FAIR      70  61  73 N8        29.71R
ALMA           MOCLDY    72  63  73 NW6       29.68F
WAYCROSS       MOCLDY    75  71  86 NW6       29.68S
JESUP          FAIR      73  66  78 N5        29.68S
BAXLEY         FAIR      72  61  68 N8        29.68S
BRUNSWICK      MOCLDY    72  66  83 W3        29.68S
SAINT SIMONS   CLOUDY    73  68  84 W6        29.66F

$$

SCZ027-028-034-036>038-045-046-048>050-GAZ119-141-270800-
...LAKE AND SUPPLEMENTAL COASTAL OBSERVATIONS...

STATION/POSITION TIME  TEMP    WIND        PRES    WAVE   SWELL
                       AIR SEA DIR/SP/G            HT/PER HT/PER/DIR
                 (UTC) (F)     (DEG/KT/KT) (MB)    (FT/S) (FT/S/D)
UPR LAKE MARION  NOT AVBL
WINYAH BAY       0645   53     360/  5     1006.0S
LAKE MURRAY      0600   54      30/  2/  4 1008.1F
ACE BASIN NERRS  NOT AVBL
FORT PULASKI     0700           20/ 11/ 14   N/A
SAPELO ISLAND    0700   74     340/ 11     1005.0S

$$

ANZ835-935-AMZ111-154-330-350-352-354-370-450-454-472-270800-
...C-MAN AND BUOY OBSERVATIONS...

STATION/POSITION TIME  TEMP    WIND        PRES    WAVE   SWELL
                       AIR SEA DIR/SP/G            HT/PER HT/PER/DIR
                 (UTC) (F)     (DEG/KT/KT) (MB)    (FT/S) (FT/S/D)
BUOY 41004       0650   64 71   20/ 17/ 19 1005.0F   6/ 6
BUOY 41008       0650   69 71   50/ 17/ 21 1004.9R   1/ 5
FOLLY BEACH CMAN 0700   58      20/ 13/ 15 1006.9R
CAPERS NEARSHORE 0608   59      30/ 16/ 21 1006.9F
FRIPP NEARSHORE  0600   65      50/ 16/ 19 1005.9R


STATION/POSITION TIME  TEMP    WIND        PRES    WAVE   SWELL
                       AIR SEA DIR/SP/G            HT/PER HT/PER/DIR
                 (UTC) (F)     (DEG/KT/KT) (MB)    (FT/S) (FT/S/D)
5E ST. MARYS GA  0621      71                N/A     1/ 4
FRYING PAN BUOY  0650   61 71   20/ 14/ 17 1006.0F   4/ 5   2/140/ 7
BUOY 41025       0650   60 75   10/ 19/ 23 1004.9F   7/10   3/ 60/10
CAPE LOOKOUT NC  0700   54     330/ 10/ 12 1006.5R
BUOY 41002       0650   67 70   20/  8/ 10 1003.9F   7/ 8   7/240/ 8
BUOY 41010       0620   80 79  250/ 17/ 19 1004.7F
ST AUGUSTINE FL  0700   75 67  240/  6/  7 1006.2R


$$


USA.gov is the U.S. government's official web portal to all federal, state and local government web resources and services.